Location: Monteux
(44.0348°N, 4.9972°E)
Time: 18:12:14
(UTC+00:00)

OE (NEXTSAT) - Pass Details

Date: 30 November 2020
Orbit: 428 x 435 km, 46.0° (Epoch: 18 January)

Event Time Altitude Azimuth Distance (km) Brightness Sun altitude
Rises 17:35:00 0° 279° (W) 2,394 9.4 -16.0°
Reaches altitude 10° 17:37:08 10° 282° (WNW) 1,525 8.1 -16.4°
Maximum altitude 17:40:33 61° 4° (N) 489 4.4 -17.0°
Enters shadow 17:41:18 46° 59° (ENE) 582 4.5 -17.1°
